Time,TemperatureF,DewpointF,PressureIn,WindDirection,WindDirectionDegrees,WindSpeedMPH,WindSpeedGustMPH,Humidity,HourlyPrecipIn,Conditions,Clouds,dailyrainin,SoftwareType,DateUTC
2013-09-16 00:13:00,55.2,54.4,29.97,NNW,337,0.0,-999.0,97,-99.99,,,0.00,Acu-Link.com,2013-09-16 04:13:00,
2013-09-16 00:28:00,55.4,54.8,29.97,NE,45,0.0,-999.0,98,-99.99,,,0.00,Acu-Link.com,2013-09-16 04:28:00,
2013-09-16 00:43:00,55.4,54.8,29.97,South,180,0.0,-999.0,98,-99.99,,,0.00,Acu-Link.com,2013-09-16 04:43:00,
2013-09-16 00:58:00,55.4,54.6,29.97,East,90,0.0,-999.0,97,-99.99,,,0.00,Acu-Link.com,2013-09-16 04:58:00,
2013-09-16 01:14:00,55.6,54.8,29.97,ENE,67,0.0,-999.0,97,-99.99,,,0.00,Acu-Link.com,2013-09-16 05:14:00,
2013-09-16 01:29:00,55.8,55.0,29.96,East,90,1.7,-999.0,97,-99.99,,,0.00,Acu-Link.com,2013-09-16 05:29:00,
2013-09-16 01:44:00,55.8,55.0,29.96,NNW,337,0.0,-999.0,97,-99.99,,,0.00,Acu-Link.com,2013-09-16 05:44:00,
2013-09-16 01:59:00,55.8,55.0,29.97,ESE,112,0.0,-999.0,97,-99.99,,,0.00,Acu-Link.com,2013-09-16 05:59:00,
2013-09-16 02:15:00,55.8,55.0,29.97,ESE,112,0.0,-999.0,97,-99.99,,,0.00,Acu-Link.com,2013-09-16 06:15:00,
2013-09-16 02:30:00,55.9,55.1,29.96,WNW,292,0.0,-999.0,97,-99.99,,,0.00,Acu-Link.com,2013-09-16 06:30:00,
2013-09-16 02:45:00,55.9,55.1,29.96,NNE,22,0.0,-999.0,97,-99.99,,,0.00,Acu-Link.com,2013-09-16 06:45:00,
2013-09-16 03:01:00,55.9,55.1,29.97,NNW,337,0.0,-999.0,97,-99.99,,,0.00,Acu-Link.com,2013-09-16 07:01:00,
2013-09-16 03:16:00,56.1,55.5,29.97,NE,45,0.0,-999.0,98,-99.99,,,0.00,Acu-Link.com,2013-09-16 07:16:00,
2013-09-16 03:31:00,56.1,55.5,29.96,ESE,112,1.7,-999.0,98,-99.99,,,0.00,Acu-Link.com,2013-09-16 07:31:00,
2013-09-16 03:47:00,55.9,55.6,29.97,NNE,22,0.0,-999.0,99,-99.99,,,0.00,Acu-Link.com,2013-09-16 07:47:00,
2013-09-16 04:02:00,55.9,55.6,29.96,SSE,157,0.0,-999.0,99,-99.99,,,0.00,Acu-Link.com,2013-09-16 08:02:00,
2013-09-16 04:19:00,56.1,55.8,29.96,East,90,0.0,-999.0,99,-99.99,,,0.00,Acu-Link.com,2013-09-16 08:19:00,
2013-09-16 04:34:00,55.9,55.6,29.97,ESE,112,0.0,-999.0,99,-99.99,,,0.00,Acu-Link.com,2013-09-16 08:34:00,
2013-09-16 04:49:00,55.9,55.6,29.97,ESE,112,1.1,-999.0,99,-99.99,,,0.00,Acu-Link.com,2013-09-16 08:49:00,
2013-09-16 05:05:00,55.9,55.6,29.98,East,90,2.7,-999.0,99,-99.99,,,0.01,Acu-Link.com,2013-09-16 09:05:00,
2013-09-16 05:20:00,55.9,55.6,29.98,East,90,0.0,-999.0,99,-99.99,,,0.01,Acu-Link.com,2013-09-16 09:20:00,
2013-09-16 05:35:00,55.9,55.6,29.99,SW,225,0.0,-999.0,99,-99.99,,,0.03,Acu-Link.com,2013-09-16 09:35:00,
2013-09-16 05:50:00,55.8,55.5,29.98,East,90,0.0,-999.0,99,-99.99,,,0.03,Acu-Link.com,2013-09-16 09:50:00,
2013-09-16 06:05:00,55.6,55.3,30.00,West,270,0.0,-999.0,99,-99.99,,,0.04,Acu-Link.com,2013-09-16 10:05:00,
2013-09-16 06:21:00,55.4,55.1,29.99,East,90,0.0,-999.0,99,-99.99,,,0.04,Acu-Link.com,2013-09-16 10:21:00,
2013-09-16 06:36:00,55.4,55.1,30.00,ESE,112,0.0,-999.0,99,-99.99,,,0.04,Acu-Link.com,2013-09-16 10:36:00,
2013-09-16 06:52:00,55.4,55.1,30.01,West,270,0.0,-999.0,99,-99.99,,,0.04,Acu-Link.com,2013-09-16 10:52:00,
2013-09-16 07:07:00,55.8,55.5,30.00,West,270,0.0,-999.0,99,-99.99,,,0.04,Acu-Link.com,2013-09-16 11:07:00,
2013-09-16 07:22:00,55.8,55.5,30.01,NNE,22,1.7,-999.0,99,-99.99,,,0.05,Acu-Link.com,2013-09-16 11:22:00,
2013-09-16 07:37:00,55.8,55.5,30.02,ENE,67,1.1,-999.0,99,-99.99,,,0.05,Acu-Link.com,2013-09-16 11:37:00,
2013-09-16 07:52:00,56.3,56.0,30.02,East,90,0.0,-999.0,99,-99.99,,,0.05,Acu-Link.com,2013-09-16 11:52:00,
2013-09-16 08:08:00,56.7,56.4,30.02,NW,315,0.0,-999.0,99,-99.99,,,0.05,Acu-Link.com,2013-09-16 12:08:00,
2013-09-16 08:23:00,57.4,57.1,30.02,NNE,22,0.0,-999.0,99,-99.99,,,0.05,Acu-Link.com,2013-09-16 12:23:00,
2013-09-16 08:38:00,57.6,57.3,30.03,WSW,247,0.0,-999.0,99,-99.99,,,0.05,Acu-Link.com,2013-09-16 12:38:00,
2013-09-16 08:53:00,57.7,57.4,30.03,ESE,112,2.7,-999.0,99,-99.99,,,0.05,Acu-Link.com,2013-09-16 12:53:00,
2013-09-16 09:08:00,60.1,59.0,30.04,WSW,247,3.2,-999.0,96,-99.99,,,0.05,Acu-Link.com,2013-09-16 13:08:00,
2013-09-16 09:24:00,59.7,58.6,30.04,NNW,337,0.0,-999.0,96,-99.99,,,0.05,Acu-Link.com,2013-09-16 13:24:00,
2013-09-16 09:39:00,62.2,58.3,30.04,SW,225,5.3,-999.0,87,-99.99,,,0.05,Acu-Link.com,2013-09-16 13:39:00,
2013-09-16 09:54:00,63.3,58.7,30.04,NNW,337,2.2,-999.0,85,-99.99,,,0.05,Acu-Link.com,2013-09-16 13:54:00,
2013-09-16 10:10:00,64.2,58.6,30.04,West,270,4.2,-999.0,82,-99.99,,,0.05,Acu-Link.com,2013-09-16 14:10:00,
2013-09-16 10:25:00,65.3,57.9,30.03,SW,225,5.8,-999.0,77,-99.99,,,0.05,Acu-Link.com,2013-09-16 14:25:00,
2013-09-16 10:40:00,66.7,56.6,30.03,West,270,1.7,-999.0,70,-99.99,,,0.05,Acu-Link.com,2013-09-16 14:40:00,
2013-09-16 10:56:00,65.5,55.1,30.03,ESE,112,3.2,-999.0,69,-99.99,,,0.05,Acu-Link.com,2013-09-16 14:56:00,
2013-09-16 11:11:00,67.1,55.4,30.03,North,0,4.7,-999.0,66,-99.99,,,0.05,Acu-Link.com,2013-09-16 15:11:00,
2013-09-16 11:26:00,66.7,57.4,30.03,ESE,112,1.1,-999.0,72,-99.99,,,0.05,Acu-Link.com,2013-09-16 15:26:00,
2013-09-16 11:42:00,67.8,56.4,30.03,NW,315,1.1,-999.0,67,-99.99,,,0.05,Acu-Link.com,2013-09-16 15:42:00,
2013-09-16 11:57:00,68.2,53.8,30.03,NE,45,2.7,-999.0,60,-99.99,,,0.05,Acu-Link.com,2013-09-16 15:57:00,
2013-09-16 12:12:00,68.5,53.6,30.03,NW,315,4.2,-999.0,59,-99.99,,,0.05,Acu-Link.com,2013-09-16 16:12:00,
2013-09-16 12:28:00,69.3,53.9,30.03,North,0,3.2,-999.0,58,-99.99,,,0.05,Acu-Link.com,2013-09-16 16:28:00,
2013-09-16 12:43:00,70.2,54.2,30.03,ENE,67,2.2,-999.0,57,-99.99,,,0.05,Acu-Link.com,2013-09-16 16:43:00,
2013-09-16 12:58:00,70.2,52.8,30.03,West,270,8.3,-999.0,54,-99.99,,,0.05,Acu-Link.com,2013-09-16 16:58:00,
2013-09-16 13:13:00,69.1,53.2,30.03,WNW,292,3.2,-999.0,57,-99.99,,,0.05,Acu-Link.com,2013-09-16 17:13:00,
2013-09-16 13:29:00,68.2,52.4,30.03,East,90,3.7,-999.0,57,-99.99,,,0.05,Acu-Link.com,2013-09-16 17:29:00,
2013-09-16 13:44:00,69.1,53.2,30.03,WSW,247,0.0,-999.0,57,-99.99,,,0.05,Acu-Link.com,2013-09-16 17:44:00,
2013-09-16 13:59:00,70.3,52.9,30.03,NNE,22,1.7,-999.0,54,-99.99,,,0.05,Acu-Link.com,2013-09-16 17:59:00,
2013-09-16 14:15:00,69.3,52.9,30.03,ENE,67,1.7,-999.0,56,-99.99,,,0.05,Acu-Link.com,2013-09-16 18:15:00,
2013-09-16 14:30:00,68.7,52.8,30.03,SW,225,4.2,-999.0,57,-99.99,,,0.05,Acu-Link.com,2013-09-16 18:30:00,
2013-09-16 14:45:00,68.4,53.5,30.03,WNW,292,1.7,-999.0,59,-99.99,,,0.05,Acu-Link.com,2013-09-16 18:45:00,
2013-09-16 15:00:00,67.5,53.1,30.03,WSW,247,2.2,-999.0,60,-99.99,,,0.05,Acu-Link.com,2013-09-16 19:00:00,
2013-09-16 15:16:00,67.1,54.1,30.04,East,90,2.7,-999.0,63,-99.99,,,0.05,Acu-Link.com,2013-09-16 19:16:00,
2013-09-16 15:31:00,68.0,53.1,30.03,NNW,337,3.2,-999.0,59,-99.99,,,0.05,Acu-Link.com,2013-09-16 19:31:00,
2013-09-16 15:46:00,68.7,53.8,30.03,NNE,22,3.7,-999.0,59,-99.99,,,0.05,Acu-Link.com,2013-09-16 19:46:00,
2013-09-16 16:01:00,68.4,54.4,30.03,ESE,112,2.2,-999.0,61,-99.99,,,0.05,Acu-Link.com,2013-09-16 20:01:00,
2013-09-16 16:17:00,67.6,53.2,30.03,NNW,337,2.2,-999.0,60,-99.99,,,0.05,Acu-Link.com,2013-09-16 20:17:00,
2013-09-16 16:32:00,68.5,54.1,30.04,NE,45,5.8,-999.0,60,-99.99,,,0.05,Acu-Link.com,2013-09-16 20:32:00,
2013-09-16 16:47:00,68.5,54.5,30.03,NNE,22,1.7,-999.0,61,-99.99,,,0.05,Acu-Link.com,2013-09-16 20:47:00,
2013-09-16 17:02:00,69.4,53.0,30.03,NNE,22,3.7,-999.0,56,-99.99,,,0.05,Acu-Link.com,2013-09-16 21:02:00,
2013-09-16 17:18:00,68.7,53.3,30.04,NNE,22,2.2,-999.0,58,-99.99,,,0.05,Acu-Link.com,2013-09-16 21:18:00,
2013-09-16 17:33:00,67.5,52.7,30.05,NW,315,5.3,-999.0,59,-99.99,,,0.05,Acu-Link.com,2013-09-16 21:33:00,
2013-09-16 17:49:00,66.6,53.6,30.05,West,270,3.2,-999.0,63,-99.99,,,0.05,Acu-Link.com,2013-09-16 21:49:00,
2013-09-16 18:04:00,65.1,53.9,30.06,NNE,22,6.3,-999.0,67,-99.99,,,0.05,Acu-Link.com,2013-09-16 22:04:00,
2013-09-16 18:19:00,64.0,53.2,30.07,NNE,22,2.7,-999.0,68,-99.99,,,0.05,Acu-Link.com,2013-09-16 22:19:00,
2013-09-16 18:34:00,63.0,53.1,30.08,NE,45,2.7,-999.0,70,-99.99,,,0.05,Acu-Link.com,2013-09-16 22:34:00,
2013-09-16 18:49:00,61.9,52.4,30.09,NNE,22,4.7,-999.0,71,-99.99,,,0.05,Acu-Link.com,2013-09-16 22:49:00,
2013-09-16 19:04:00,60.6,51.9,30.10,NNE,22,2.7,-999.0,73,-99.99,,,0.05,Acu-Link.com,2013-09-16 23:04:00,
2013-09-16 19:21:00,59.2,51.3,30.11,North,0,4.7,-999.0,75,-99.99,,,0.05,Acu-Link.com,2013-09-16 23:21:00,
2013-09-16 19:36:00,58.1,51.3,30.11,NNW,337,2.7,-999.0,78,-99.99,,,0.05,Acu-Link.com,2013-09-16 23:36:00,
2013-09-16 19:51:00,57.4,50.9,30.12,NE,45,5.3,-999.0,79,-99.99,,,0.05,Acu-Link.com,2013-09-16 23:51:00,
2013-09-16 20:06:00,56.5,50.4,30.12,NNW,337,1.7,-999.0,80,-99.99,,,0.05,Acu-Link.com,2013-09-17 00:06:00,
2013-09-16 20:22:00,55.8,50.4,30.14,East,90,2.2,-999.0,82,-99.99,,,0.05,Acu-Link.com,2013-09-17 00:22:00,
2013-09-16 20:37:00,55.2,49.8,30.15,West,270,1.1,-999.0,82,-99.99,,,0.05,Acu-Link.com,2013-09-17 00:37:00,
2013-09-16 20:52:00,55.6,50.2,30.16,NNE,22,7.8,-999.0,82,-99.99,,,0.05,Acu-Link.com,2013-09-17 00:52:00,
2013-09-16 21:08:00,55.8,48.3,30.17,ENE,67,6.3,-999.0,76,-99.99,,,0.05,Acu-Link.com,2013-09-17 01:08:00,
2013-09-16 21:23:00,55.6,48.2,30.18,NNE,22,2.2,-999.0,76,-99.99,,,0.05,Acu-Link.com,2013-09-17 01:23:00,
2013-09-16 21:38:00,55.4,46.9,30.19,WNW,292,7.3,-999.0,73,-99.99,,,0.05,Acu-Link.com,2013-09-17 01:38:00,
2013-09-16 21:54:00,54.5,45.3,30.19,NW,315,2.2,-999.0,71,-99.99,,,0.05,Acu-Link.com,2013-09-17 01:54:00,
2013-09-16 22:09:00,53.2,44.0,30.20,ENE,67,6.3,-999.0,71,-99.99,,,0.05,Acu-Link.com,2013-09-17 02:09:00,
2013-09-16 22:24:00,52.3,43.5,30.21,NNW,337,4.2,-999.0,72,-99.99,,,0.05,Acu-Link.com,2013-09-17 02:24:00,
2013-09-16 22:40:00,52.0,42.5,30.22,NNE,22,3.2,-999.0,70,-99.99,,,0.05,Acu-Link.com,2013-09-17 02:40:00,
2013-09-16 22:55:00,51.3,42.2,30.22,NNE,22,3.2,-999.0,71,-99.99,,,0.05,Acu-Link.com,2013-09-17 02:55:00,
2013-09-16 23:10:00,51.4,42.7,30.23,West,270,0.0,-999.0,72,-99.99,,,0.05,Acu-Link.com,2013-09-17 03:10:00,
2013-09-16 23:26:00,51.6,42.9,30.24,NE,45,1.7,-999.0,72,-99.99,,,0.05,Acu-Link.com,2013-09-17 03:26:00,
2013-09-16 23:41:00,51.4,42.3,30.25,NW,315,2.2,-999.0,71,-99.99,,,0.05,Acu-Link.com,2013-09-17 03:41:00,
2013-09-16 23:56:00,50.7,41.3,30.25,ENE,67,3.2,-999.0,70,-99.99,,,0.05,Acu-Link.com,2013-09-17 03:56:00,